RPA256 KBWI-KRDU

Flight info

Callsign RPA256
Flight time 0h 56m
Altitude 34000
Route CONLE5 COLIN DCT TAPPA DCT HOUKY TAQLE3
Aircraft E170/M-SDE3GILORVW/S

Departure

Time 2026-05-06 23:17
Airport Baltimore/Washington International Thurgood Marshall Airport (KBWI)

Arrival

Time 2026-05-07 00:13
Airport Raleigh-Durham International Airport (KRDU)
Time Latitude Longitude Altitude Speed Heading
2026-05-06 22:56 39.17797 -76.66801 154 ft 0 kts 54°
2026-05-06 23:09 39.17786 -76.66823 154 ft 4 kts 63°
2026-05-06 23:09 39.17778 -76.66856 154 ft 4 kts 83°
2026-05-06 23:09 39.17783 -76.66888 154 ft 4 kts 126°
2026-05-06 23:09 39.17789 -76.66896 154 ft 2 kts 144°
2026-05-06 23:12 39.17775 -76.66883 154 ft 6 kts 144°
2026-05-06 23:12 39.17713 -76.66824 154 ft 16 kts 143°
2026-05-06 23:12 39.17603 -76.66776 154 ft 18 kts 184°
2026-05-06 23:13 39.17526 -76.66762 153 ft 3 kts 108°
2026-05-06 23:13 39.17523 -76.66682 152 ft 15 kts 94°
2026-05-06 23:13 39.17557 -76.66540 152 ft 16 kts 38°
2026-05-06 23:13 39.17559 -76.66442 151 ft 15 kts 119°
2026-05-06 23:14 39.17480 -76.66286 147 ft 25 kts 120°
2026-05-06 23:14 39.17447 -76.66058 146 ft 28 kts 94°
2026-05-06 23:14 39.17432 -76.65795 140 ft 32 kts 94°
2026-05-06 23:14 39.17406 -76.65549 139 ft 20 kts 131°
2026-05-06 23:15 39.17374 -76.65525 139 ft 0 kts 174°
2026-05-06 23:15 39.17372 -76.65525 139 ft 1 kts 174°
2026-05-06 23:16 39.17332 -76.65525 139 ft 12 kts 180°
2026-05-06 23:16 39.17283 -76.65592 138 ft 13 kts 273°
2026-05-06 23:16 39.17297 -76.65846 142 ft 66 kts 273°
2026-05-06 23:16 39.17329 -76.66418 149 ft 126 kts 274°
2026-05-06 23:17 39.17406 -76.67827 544 ft 175 kts 272°
2026-05-06 23:17 39.17482 -76.69521 1457 ft 205 kts 271°
2026-05-06 23:17 39.17559 -76.71367 2466 ft 212 kts 271°
2026-05-06 23:17 39.17656 -76.73277 3560 ft 211 kts 270°
2026-05-06 23:18 39.17778 -76.75204 4612 ft 219 kts 273°
2026-05-06 23:18 39.18069 -76.77192 5528 ft 233 kts 280°
2026-05-06 23:18 39.18489 -76.79240 6455 ft 239 kts 280°
2026-05-06 23:18 39.18911 -76.81343 7410 ft 245 kts 280°
2026-05-06 23:19 39.19336 -76.83493 8367 ft 250 kts 280°
2026-05-06 23:19 39.19768 -76.85689 9259 ft 253 kts 280°
2026-05-06 23:19 39.20200 -76.87909 10136 ft 257 kts 280°
2026-05-06 23:19 39.20646 -76.90192 10656 ft 272 kts 280°
2026-05-06 23:20 39.21118 -76.92604 11254 ft 283 kts 280°
2026-05-06 23:20 39.21601 -76.95089 11973 ft 288 kts 280°
2026-05-06 23:20 39.21961 -76.97635 12689 ft 289 kts 270°
2026-05-06 23:20 39.21973 -76.97977 12782 ft 289 kts 270°
2026-05-06 23:21 39.22020 -77.00363 13424 ft 291 kts 269°
2026-05-06 23:21 39.22062 -77.02988 14016 ft 296 kts 269°
2026-05-06 23:21 39.22102 -77.05651 14018 ft 296 kts 269°
2026-05-06 23:21 39.22139 -77.08295 14032 ft 294 kts 269°
2026-05-06 23:22 39.22077 -77.10920 14016 ft 292 kts 260°
2026-05-06 23:22 39.21392 -77.13369 14029 ft 293 kts 242°
2026-05-06 23:22 39.20061 -77.15376 14025 ft 300 kts 224°
2026-05-06 23:22 39.18343 -77.16938 14047 ft 302 kts 219°
2026-05-06 23:23 39.16595 -77.18448 14067 ft 303 kts 219°
2026-05-06 23:23 39.14837 -77.19946 14080 ft 303 kts 219°
2026-05-06 23:23 39.13076 -77.21437 14091 ft 303 kts 219°
2026-05-06 23:23 39.11309 -77.22922 14074 ft 303 kts 218°
2026-05-06 23:24 39.09549 -77.24394 14596 ft 299 kts 219°
2026-05-06 23:24 39.07771 -77.25815 15459 ft 304 kts 216°
2026-05-06 23:24 39.05887 -77.27103 16236 ft 309 kts 215°
2026-05-06 23:24 39.03979 -77.28425 16961 ft 313 kts 216°
2026-05-06 23:25 39.02076 -77.29746 17646 ft 318 kts 216°
2026-05-06 23:25 39.00118 -77.31109 18338 ft 322 kts 216°
2026-05-06 23:25 38.98133 -77.32493 19039 ft 326 kts 216°
2026-05-06 23:25 38.96129 -77.33894 19778 ft 329 kts 217°
2026-05-06 23:26 38.94107 -77.35305 20496 ft 333 kts 217°
2026-05-06 23:26 38.92062 -77.36731 21218 ft 335 kts 217°
2026-05-06 23:26 38.90008 -77.38167 21811 ft 339 kts 217°
2026-05-06 23:26 38.87922 -77.39621 21867 ft 341 kts 217°
2026-05-06 23:27 38.85843 -77.41064 21873 ft 339 kts 217°
2026-05-06 23:27 38.83770 -77.42506 21879 ft 338 kts 217°
2026-05-06 23:27 38.81703 -77.43943 21876 ft 338 kts 217°
2026-05-06 23:27 38.79637 -77.45379 21874 ft 338 kts 217°
2026-05-06 23:28 38.77563 -77.46822 21893 ft 345 kts 217°
2026-05-06 23:28 38.75411 -77.48325 21931 ft 357 kts 217°
2026-05-06 23:28 38.73169 -77.49799 21955 ft 371 kts 211°
2026-05-06 23:28 38.70656 -77.50818 21964 ft 383 kts 205°
2026-05-06 23:29 38.68068 -77.51711 21866 ft 385 kts 204°
2026-05-06 23:29 38.65481 -77.52611 21853 ft 386 kts 204°
2026-05-06 23:29 38.62884 -77.53517 21858 ft 387 kts 204°
2026-05-06 23:29 38.60286 -77.54423 21857 ft 388 kts 204°
2026-05-06 23:30 38.57680 -77.55332 21856 ft 388 kts 204°
2026-05-06 23:30 38.55075 -77.56242 21872 ft 388 kts 204°
2026-05-06 23:30 38.52506 -77.57137 21866 ft 388 kts 204°
2026-05-06 23:30 38.49893 -77.58050 21870 ft 389 kts 204°
2026-05-06 23:31 38.47286 -77.58958 21864 ft 388 kts 204°
2026-05-06 23:31 38.44674 -77.59868 21872 ft 389 kts 204°
2026-05-06 23:31 38.42025 -77.60798 21877 ft 400 kts 204°
2026-05-06 23:31 38.39323 -77.61741 21875 ft 407 kts 204°
2026-05-06 23:32 38.36579 -77.62702 21869 ft 410 kts 204°
2026-05-06 23:32 38.33823 -77.63656 21869 ft 411 kts 204°
2026-05-06 23:32 38.31061 -77.64624 21872 ft 411 kts 205°
2026-05-06 23:32 38.28537 -77.66139 21913 ft 397 kts 219°
2026-05-06 23:33 38.26260 -77.68120 21864 ft 396 kts 221°
2026-05-06 23:33 38.23984 -77.70101 21858 ft 397 kts 221°
2026-05-06 23:33 38.21705 -77.72076 21870 ft 397 kts 221°
2026-05-06 23:33 38.19417 -77.74050 21865 ft 397 kts 221°
2026-05-06 23:34 38.17135 -77.76019 21867 ft 397 kts 221°
2026-05-06 23:34 38.14845 -77.77991 21874 ft 398 kts 221°
2026-05-06 23:34 38.12553 -77.79959 21872 ft 398 kts 221°
2026-05-06 23:34 38.10260 -77.81927 21870 ft 397 kts 221°
2026-05-06 23:35 38.07974 -77.83887 21864 ft 397 kts 221°
2026-05-06 23:35 38.05683 -77.85848 21886 ft 397 kts 221°
2026-05-06 23:35 38.03391 -77.87809 21887 ft 398 kts 221°
2026-05-06 23:35 38.01093 -77.89771 21887 ft 397 kts 221°
2026-05-06 23:36 37.98800 -77.91729 21888 ft 397 kts 221°
2026-05-06 23:36 37.96505 -77.93687 21891 ft 397 kts 221°
2026-05-06 23:36 37.94216 -77.95643 21890 ft 397 kts 221°
2026-05-06 23:36 37.91921 -77.97597 21888 ft 397 kts 221°
2026-05-06 23:37 37.89628 -77.99548 21891 ft 398 kts 221°
2026-05-06 23:37 37.87331 -78.01501 21890 ft 398 kts 221°
2026-05-06 23:37 37.85037 -78.03449 21890 ft 397 kts 221°
2026-05-06 23:37 37.82742 -78.05403 21894 ft 397 kts 221°
2026-05-06 23:38 37.80449 -78.07348 21894 ft 397 kts 221°
2026-05-06 23:38 37.78152 -78.09294 21891 ft 397 kts 221°
2026-05-06 23:38 37.75852 -78.11241 21893 ft 398 kts 220°
2026-05-06 23:38 37.73548 -78.13192 21900 ft 398 kts 220°
2026-05-06 23:39 37.71272 -78.15115 21901 ft 398 kts 220°
2026-05-06 23:39 37.68973 -78.17057 21899 ft 398 kts 220°
2026-05-06 23:39 37.66671 -78.19005 21900 ft 398 kts 220°
2026-05-06 23:39 37.64370 -78.20947 21909 ft 398 kts 220°
2026-05-06 23:40 37.62066 -78.22889 21911 ft 398 kts 220°
2026-05-06 23:40 37.59758 -78.24833 21913 ft 399 kts 220°
2026-05-06 23:40 37.57446 -78.26777 21911 ft 400 kts 220°
2026-05-06 23:40 37.55137 -78.28722 21908 ft 399 kts 220°
2026-05-06 23:41 37.52817 -78.30672 21911 ft 401 kts 220°
2026-05-06 23:41 37.50500 -78.32619 21913 ft 400 kts 220°
2026-05-06 23:41 37.48183 -78.34561 21917 ft 400 kts 220°
2026-05-06 23:41 37.45864 -78.36508 21916 ft 400 kts 220°
2026-05-06 23:42 37.43545 -78.38452 21915 ft 400 kts 220°
2026-05-06 23:42 37.41227 -78.40392 21916 ft 401 kts 220°
2026-05-06 23:42 37.38903 -78.42339 21915 ft 401 kts 220°
2026-05-06 23:42 37.36578 -78.44283 21915 ft 401 kts 220°
2026-05-06 23:43 37.34255 -78.46224 21918 ft 402 kts 220°
2026-05-06 23:43 37.31920 -78.48173 21918 ft 402 kts 220°
2026-05-06 23:43 37.29586 -78.50122 21921 ft 402 kts 220°
2026-05-06 23:43 37.27251 -78.52069 21917 ft 402 kts 220°
2026-05-06 23:44 37.24982 -78.54038 21914 ft 399 kts 225°
2026-05-06 23:44 37.23205 -78.56620 21920 ft 387 kts 243°
2026-05-06 23:44 37.22306 -78.59751 21955 ft 382 kts 262°
2026-05-06 23:44 37.22366 -78.63049 21956 ft 382 kts 280°
2026-05-06 23:45 37.23216 -78.66218 21980 ft 384 kts 289°
2026-05-06 23:45 37.24269 -78.69302 21920 ft 384 kts 290°
2026-05-06 23:45 37.25343 -78.72382 21919 ft 384 kts 290°
2026-05-06 23:45 37.26417 -78.75448 21918 ft 384 kts 290°
2026-05-06 23:46 37.27494 -78.78518 21924 ft 384 kts 290°
2026-05-06 23:46 37.28571 -78.81587 21925 ft 385 kts 290°
2026-05-06 23:46 37.29650 -78.84657 21926 ft 385 kts 290°
2026-05-06 23:46 37.30731 -78.87717 21928 ft 383 kts 290°
2026-05-06 23:47 37.31817 -78.90778 21920 ft 383 kts 290°
2026-05-06 23:47 37.32900 -78.93834 21921 ft 383 kts 290°
2026-05-06 23:47 37.33975 -78.96859 21913 ft 378 kts 290°
2026-05-06 23:47 37.35047 -78.99870 21911 ft 376 kts 290°
2026-05-06 23:48 37.36083 -79.02832 21920 ft 373 kts 287°
2026-05-06 23:48 37.36586 -79.06016 21966 ft 372 kts 271°
2026-05-06 23:48 37.36270 -79.09225 21961 ft 373 kts 256°
2026-05-06 23:48 37.35166 -79.12184 21952 ft 379 kts 241°
2026-05-06 23:49 37.33329 -79.14610 21955 ft 392 kts 224°
2026-05-06 23:49 37.30858 -79.16198 21961 ft 411 kts 205°
2026-05-06 23:49 37.27961 -79.16626 21956 ft 433 kts 185°
2026-05-06 23:49 37.24946 -79.15935 21961 ft 445 kts 175°
2026-05-06 23:50 37.21947 -79.14986 21933 ft 444 kts 174°
2026-05-06 23:50 37.16026 -79.13152 21919 ft 434 kts 174°
2026-05-06 23:50 37.13092 -79.12258 21925 ft 433 kts 174°
2026-05-06 23:51 37.10163 -79.11356 21921 ft 433 kts 174°
2026-05-06 23:51 37.07282 -79.10465 21915 ft 432 kts 174°
2026-05-06 23:51 37.04363 -79.09564 21918 ft 432 kts 174°
2026-05-06 23:51 37.01447 -79.08662 21912 ft 431 kts 174°
2026-05-06 23:52 36.98533 -79.07764 21922 ft 431 kts 174°
2026-05-06 23:52 36.95617 -79.06869 21922 ft 431 kts 174°
2026-05-06 23:52 36.92712 -79.05971 21831 ft 425 kts 174°
2026-05-06 23:52 36.89891 -79.05056 21490 ft 413 kts 173°
2026-05-06 23:53 36.87139 -79.04149 21079 ft 406 kts 173°
2026-05-06 23:53 36.84420 -79.03260 20564 ft 400 kts 173°
2026-05-06 23:53 36.81753 -79.02380 20035 ft 393 kts 173°
2026-05-06 23:53 36.79118 -79.01535 19532 ft 388 kts 174°
2026-05-06 23:54 36.76510 -79.00695 19039 ft 386 kts 173°
2026-05-06 23:54 36.73922 -78.99878 18551 ft 383 kts 174°
2026-05-06 23:54 36.71345 -78.99085 18035 ft 381 kts 174°
2026-05-06 23:54 36.68781 -78.98308 17543 ft 378 kts 174°
2026-05-06 23:55 36.66235 -78.97562 17041 ft 374 kts 175°
2026-05-06 23:55 36.63708 -78.96840 16536 ft 370 kts 175°
2026-05-06 23:55 36.61207 -78.96148 16037 ft 367 kts 175°
2026-05-06 23:55 36.58726 -78.95481 15530 ft 363 kts 175°
2026-05-06 23:56 36.56259 -78.94836 15020 ft 361 kts 176°
2026-05-06 23:56 36.53806 -78.94212 14524 ft 357 kts 176°
2026-05-06 23:56 36.51384 -78.93610 14009 ft 352 kts 176°
2026-05-06 23:56 36.49006 -78.93037 13507 ft 344 kts 176°
2026-05-06 23:57 36.46671 -78.92487 13001 ft 337 kts 177°
2026-05-06 23:57 36.44387 -78.91967 12530 ft 330 kts 177°
2026-05-06 23:57 36.42155 -78.91533 12088 ft 316 kts 186°
2026-05-06 23:57 36.40125 -78.91984 11733 ft 290 kts 207°
2026-05-06 23:58 36.38465 -78.93223 11285 ft 273 kts 227°
2026-05-06 23:58 36.37139 -78.94827 11141 ft 261 kts 231°
2026-05-06 23:58 36.35863 -78.96425 11078 ft 261 kts 230°
2026-05-06 23:58 36.34580 -78.98034 11065 ft 264 kts 231°
2026-05-06 23:59 36.33288 -78.99659 11061 ft 265 kts 231°
2026-05-06 23:59 36.31986 -79.01294 11059 ft 267 kts 230°
2026-05-06 23:59 36.30684 -79.02940 11060 ft 268 kts 231°
2026-05-06 23:59 36.29297 -79.04513 10947 ft 276 kts 219°
2026-05-07 00:00 36.27456 -79.05338 10763 ft 292 kts 194°
2026-05-07 00:00 36.25401 -79.05020 10488 ft 310 kts 165°
2026-05-07 00:00 36.23638 -79.03432 10202 ft 323 kts 134°
2026-05-07 00:00 36.22884 -79.01833 10029 ft 328 kts 114°
2026-05-07 00:01 36.22407 -78.98153 9734 ft 327 kts 95°
2026-05-07 00:01 36.22223 -78.95345 9472 ft 327 kts 98°
2026-05-07 00:01 36.21985 -78.92550 9196 ft 325 kts 98°
2026-05-07 00:01 36.21724 -78.89775 8931 ft 323 kts 100°
2026-05-07 00:02 36.21453 -78.87030 8692 ft 320 kts 100°
2026-05-07 00:02 36.21166 -78.84303 8438 ft 318 kts 101°
2026-05-07 00:02 36.20969 -78.82510 8280 ft 317 kts 101°
2026-05-07 00:02 36.20656 -78.79809 8034 ft 316 kts 101°
2026-05-07 00:03 36.20336 -78.77129 7782 ft 313 kts 102°
2026-05-07 00:03 36.20007 -78.74499 7517 ft 305 kts 103°
2026-05-07 00:03 36.19680 -78.71935 7254 ft 297 kts 103°
2026-05-07 00:03 36.19350 -78.69443 7012 ft 290 kts 104°
2026-05-07 00:04 36.19009 -78.67010 6768 ft 282 kts 107°
2026-05-07 00:04 36.18206 -78.64931 6603 ft 255 kts 141°
2026-05-07 00:04 36.16911 -78.63594 6661 ft 237 kts 151°
2026-05-07 00:04 36.15576 -78.62334 6321 ft 244 kts 150°
2026-05-07 00:05 36.14224 -78.61047 5984 ft 246 kts 150°
2026-05-07 00:05 36.12876 -78.59759 5683 ft 243 kts 150°
2026-05-07 00:05 36.11569 -78.58516 5462 ft 229 kts 150°
2026-05-07 00:05 36.10355 -78.57384 5284 ft 207 kts 155°
2026-05-07 00:06 36.09091 -78.56949 5069 ft 177 kts 189°
2026-05-07 00:06 36.07899 -78.57093 4879 ft 171 kts 190°
2026-05-07 00:06 36.06780 -78.57432 4654 ft 163 kts 206°
2026-05-07 00:06 36.05726 -78.57893 4453 ft 163 kts 200°
2026-05-07 00:07 36.04768 -78.58547 4258 ft 156 kts 226°
2026-05-07 00:07 36.04060 -78.59564 4086 ft 157 kts 228°
2026-05-07 00:07 36.03284 -78.60517 3920 ft 158 kts 224°
2026-05-07 00:07 36.02484 -78.61465 3743 ft 159 kts 226°
2026-05-07 00:08 36.01712 -78.62448 3566 ft 160 kts 226°
2026-05-07 00:08 36.00928 -78.63431 3388 ft 161 kts 225°
2026-05-07 00:08 36.00133 -78.64409 3206 ft 162 kts 225°
2026-05-07 00:08 35.99345 -78.65400 3020 ft 160 kts 225°
2026-05-07 00:09 35.98573 -78.66361 3023 ft 156 kts 225°
2026-05-07 00:09 35.97773 -78.67355 2763 ft 167 kts 225°
2026-05-07 00:09 35.96953 -78.68376 2530 ft 168 kts 225°
2026-05-07 00:09 35.96159 -78.69367 2318 ft 152 kts 224°
2026-05-07 00:10 35.95459 -78.70238 2125 ft 134 kts 224°
2026-05-07 00:10 35.94843 -78.71004 1958 ft 124 kts 224°
2026-05-07 00:10 35.94242 -78.71750 1789 ft 123 kts 225°
2026-05-07 00:10 35.93626 -78.72516 1625 ft 128 kts 224°
2026-05-07 00:11 35.92992 -78.73308 1475 ft 132 kts 225°
2026-05-07 00:11 35.92338 -78.74139 1288 ft 136 kts 225°
2026-05-07 00:11 35.91671 -78.74964 1109 ft 134 kts 225°
2026-05-07 00:11 35.91012 -78.75778 917 ft 134 kts 225°
2026-05-07 00:12 35.90357 -78.76596 723 ft 134 kts 225°
2026-05-07 00:12 35.89699 -78.77415 524 ft 135 kts 224°
2026-05-07 00:12 35.89046 -78.78222 393 ft 127 kts 224°
2026-05-07 00:12 35.88509 -78.78886 389 ft 91 kts 224°
2026-05-07 00:13 35.88149 -78.79326 390 ft 57 kts 223°
2026-05-07 00:13 35.87968 -78.79480 391 ft 15 kts 180°
2026-05-07 00:13 35.87943 -78.79469 391 ft 0 kts 140°
2026-05-07 00:14 35.87941 -78.79467 391 ft 2 kts 137°
2026-05-07 00:14 35.87934 -78.79412 390 ft 12 kts 67°
2026-05-07 00:15 35.87935 -78.79350 390 ft 7 kts 110°
2026-05-07 00:15 35.87942 -78.79292 389 ft 9 kts 55°
2026-05-07 00:15 35.88005 -78.79213 389 ft 17 kts 46°
2026-05-07 00:15 35.88061 -78.79099 389 ft 12 kts 120°
2026-05-07 00:16 35.87997 -78.79015 389 ft 15 kts 135°
2026-05-07 00:16 35.87901 -78.79014 389 ft 17 kts 227°
2026-05-07 00:16 35.87852 -78.79078 389 ft 8 kts 226°
2026-05-07 00:16 35.87830 -78.79116 389 ft 5 kts 270°
2026-05-07 00:17 35.87841 -78.79145 389 ft 4 kts 316°
2026-05-07 00:17 35.87852 -78.79158 389 ft 1 kts 316°
2026-05-07 00:17 35.87853 -78.79159 389 ft 0 kts 316°